Find DMSP F-2

NORAD ID: 10033 Int'l Des: 1977-044 Owner: SAMSO Country: US operational
LEOCIRCULARRETROGRADE

实时位置

正在加载3D地球...

关于 DMSP F-2

正在加载描述...

即将过境

Passes for default location (London). Set your location on the main map for personalized predictions.

高度历史

Loading altitude history...

两行轨道根数

1 10033U 77044A 26105.87225061 .00000146 00000-0 72565-4 0 9994
2 10033 99.1237 151.1621 0038511 50.3718 310.0852 14.31431822359240
Epoch: Apr 15, 2026 • Age: 8 hours

当前状态

高度 787.8 km
速度 7.46 km/s
星下点 -23.85°S, 126.95°W
发射日期 Jun 5, 1977
运行时间 48.8 years
类型 other

技术详情

分类 Payload
质量 447.00 kg
干质量 447.00 kg
总质量 1177.00 kg
长度 6.10 m
直径 1.50 m
跨度 6.10 m
形状 Box + Pan
制造商 RCA
平台类型 Block 5D
阶段状态 Attached in Orbit
所有者/国家 SAMSO/US

Most Searched